User: anonymous   Login
Location: Bergnershof
(48.9468°N, 10.9431°E)
Time: 22:35:24
(UTC+00:00)
Language:

SL-4 R/B - Orbit

View from above orbital plane
View from above orbital plane
View from above satellite
View from above satellite

Ground track
Ground track

The orbit data is extracted from the following two-line orbital elements,

1 39679U 14021B   21138.01721741  .00000452  00000-0  39668-4 0  9997
2 39679  51.6169 354.2710 0170573  25.7185 335.2146 15.06951716389787
Epoch (UTC): 18 May 2021 00:24:47
Eccentricity: 0.0170573
inclination: 51.6169°
perigee height: 427 km
apogee height: 663 km
right ascension of ascending node: 354.2710°
argument of perigee: 25.7185°
revolutions per day: 15.06951716
mean anomaly at epoch: 335.2146°
orbit number at epoch: 38978

The dashed part of the orbit path shows where the satellite is in the earth's shadow,  

DLR